This demonstration page uses our WeatherBlox Daily Observations layout. Learn more.

Left ArrowRight Arrow

Hourly Observations for April 6, 2017

Temp ( °F °C ) Dew Point ( °F °C ) Humidity (%) Winds ( mph kmh ) Pressure ( in mb ) Visibility ( mi km ) Precip ( " mm )
12:15 am 00:15 Clear 37 3 27 -3 65 65 NW 3 6 30.18 1022 10 16 0.00 0.00
12:35 am 00:35 Clear 34 1 25 -4 70 70 N 7 11 30.21 1023 10 16 0.00 0.00
12:55 am 00:55 Clear 37 3 28 -2 70 70 W 6 9 30.21 1023 10 16 0.00 0.00
1:15 am 01:15 Mostly Clear 41 5 28 -2 61 61 Calm 30.21 1023 10 16 0.00 0.00
1:35 am 01:35 Partly Cloudy 39 4 28 -2 65 65 W 7 11 30.21 1023 10 16 0.00 0.00
1:55 am 01:55 Partly Cloudy 39 4 30 -1 70 70 W 5 7 30.24 1024 10 16 0.00 0.00
2:15 am 02:15 Mostly Cloudy 39 4 28 -2 65 65 Calm 30.21 1023 10 16 0.00 0.00
2:35 am 02:35 Mostly Clear 37 3 28 -2 70 70 W 3 6 30.21 1023 10 16 0.00 0.00
2:55 am 02:55 Mostly Clear 37 3 28 -2 70 70 W 5 7 30.21 1023 10 16 0.00 0.00
3:15 am 03:15 Mostly Cloudy 37 3 28 -2 70 70 W 6 9 30.21 1023 10 16 0.00 0.00
3:35 am 03:35 Mostly Clear 37 3 30 -1 75 75 W 7 11 30.24 1024 10 16 0.00 0.00
3:55 am 03:55 Mostly Clear 37 3 28 -2 70 70 W 6 9 30.24 1024 10 16 0.00 0.00
4:15 am 04:15 Clear 37 3 28 -2 70 70 W 6 9 30.24 1024 10 16 0.00 0.00
4:35 am 04:35 Clear 36 2 28 -2 75 75 W 3 6 30.27 1025 10 16 0.00 0.00
4:55 am 04:55 Clear 36 2 28 -2 75 75 W 6 9 30.27 1025 10 16 0.00 0.00
5:15 am 05:15 Clear 34 1 27 -3 75 75 Calm 30.27 1025 10 16 0.00 0.00
5:35 am 05:35 Mostly Clear 36 2 28 -2 75 75 W 3 6 30.27 1025 10 16 0.00 0.00
5:55 am 05:55 Mostly Clear 34 1 28 -2 81 81 Calm 30.30 1026 10 16 0.00 0.00
6:15 am 06:15 Clear 34 1 27 -3 75 75 Calm 30.30 1026 10 16 0.00 0.00
6:35 am 06:35 Clear 30 -1 25 -4 80 80 Calm 30.33 1027 10 16 0.00 0.00
6:55 am 06:55 Clear 30 -1 27 -3 86 86 Calm 30.33 1027 10 16 0.00 0.00
7:15 am 07:15 Sunny 32 0 27 -3 80 80 Calm 30.36 1028 10 16 0.00 0.00
7:35 am 07:35 Sunny 34 1 27 -3 75 75 Calm 30.33 1027 10 16 0.00 0.00
7:55 am 07:55 Sunny 34 1 27 -3 75 75 W 3 6 30.33 1027 10 16 0.00 0.00
8:15 am 08:15 Mostly Sunny 34 1 28 -2 81 81 W 3 6 30.33 1027 10 16 0.00 0.00
8:35 am 08:35 Sunny 36 2 28 -2 75 75 Calm 30.36 1028 9 14 0.00 0.00
8:55 am 08:55 Sunny 39 4 32 0 75 75 W 3 6 30.33 1027 7 11 0.00 0.00
9:15 am 09:15 Sunny 43 6 34 1 71 71 W 3 6 30.33 1027 7 11 0.00 0.00
9:35 am 09:35 Sunny 45 7 34 1 66 66 N 7 11 30.33 1027 10 16 0.00 0.00
9:55 am 09:55 Sunny 45 7 34 1 66 66 N 7 11 30.33 1027 10 16 0.00 0.00
10:15 am 10:15 Sunny 46 8 36 2 66 66 N 8 13 30.30 1026 8 13 0.00 0.00
10:35 am 10:35 Sunny 48 9 36 2 62 62 N 7 11 30.30 1026 9 14 0.00 0.00
10:55 am 10:55 Sunny 48 9 34 1 58 58 N 8 13 30.30 1026 5 8 0.00 0.00
11:15 am 11:15 Sunny 48 9 34 1 58 58 N 5 7 30.30 1026 8 13 0.00 0.00
11:35 am 11:35 Sunny 52 11 34 1 50 50 N 7 11 30.27 1025 10 16 0.00 0.00
11:55 am 11:55 Sunny 52 11 36 2 54 54 NNE 8 13 30.27 1025 10 16 0.00 0.00
12:15 pm 12:15 Sunny 54 12 32 0 44 44 NNE 8 13 30.27 1025 8 13 0.00 0.00
12:35 pm 12:35 Mostly Sunny 54 12 32 0 44 44 NNE 12 19 30.27 1025 10 16 0.00 0.00
12:55 pm 12:55 Mostly Sunny 54 12 30 -1 41 41 NNE 12 19 30.27 1025 10 16 0.00 0.00
1:15 pm 13:15 Sunny 55 13 30 -1 38 38 NNW 10 17 30.27 1025 10 16 0.00 0.00
1:35 pm 13:35 Sunny 55 13 30 -1 38 38 NNW 5 7 30.27 1025 10 16 0.00 0.00
1:55 pm 13:55 Sunny 55 13 30 -1 38 38 N 6 9 30.27 1025 10 16 0.00 0.00
2:15 pm 14:15 Sunny 55 13 30 -1 38 38 Calm 30.27 1025 10 16 0.00 0.00
2:35 pm 14:35 Sunny 55 13 28 -2 36 36 N 5 7 30.27 1025 10 16 0.00 0.00
2:55 pm 14:55 Mostly Sunny 57 14 30 -1 36 36 WNW 5 7 30.24 1024 10 16 0.00 0.00
3:15 pm 15:15 Mostly Sunny 57 14 28 -2 33 33 N 7 11 30.24 1024 10 16 0.00 0.00
3:35 pm 15:35 Mostly Sunny 57 14 28 -2 33 33 NW 9 15 30.24 1024 10 16 0.00 0.00
3:55 pm 15:55 Mostly Sunny 59 15 28 -2 31 31 NNW 12 19 30.21 1023 10 16 0.00 0.00
4:15 pm 16:15 Sunny 59 15 28 -2 31 31 NW 7 11 30.21 1023 10 16 0.00 0.00
4:35 pm 16:35 Sunny 59 15 28 -2 31 31 NW 10 17 30.18 1022 10 16 0.00 0.00
4:55 pm 16:55 Sunny 59 15 28 -2 31 31 N 8 13 30.18 1022 10 16 0.00 0.00
5:15 pm 17:15 Sunny 61 16 28 -2 29 29 NW 7 11 30.18 1022 10 16 0.00 0.00
5:35 pm 17:35 Sunny 61 16 28 -2 29 29 NW 8 13 30.18 1022 10 16 0.00 0.00
5:55 pm 17:55 Sunny 61 16 28 -2 29 29 NNW 3 6 30.18 1022 10 16 0.00 0.00
6:15 pm 18:15 Sunny 59 15 28 -2 31 31 WNW 6 9 30.18 1022 10 16 0.00 0.00
6:35 pm 18:35 Sunny 61 16 28 -2 29 29 NNE 3 6 30.18 1022 10 16 0.00 0.00
6:55 pm 18:55 Sunny 57 14 28 -2 33 33 N 6 9 30.18 1022 10 16 0.00 0.00
7:15 pm 19:15 Sunny 57 14 28 -2 33 33 Calm 30.18 1022 10 16 0.00 0.00
7:35 pm 19:35 Sunny 57 14 28 -2 33 33 N 3 6 30.15 1021 10 16 0.00 0.00
7:55 pm 19:55 Sunny 54 12 28 -2 38 38 Calm 30.18 1022 10 16 0.00 0.00
8:15 pm 20:15 Clear 50 10 28 -2 43 43 NE 6 9 30.18 1022 10 16 0.00 0.00
8:35 pm 20:35 Clear 46 8 28 -2 50 50 NE 3 6 30.21 1023 10 16 0.00 0.00
8:55 pm 20:55 Clear 46 8 28 -2 50 50 NE 3 6 30.21 1023 10 16 0.00 0.00
9:15 pm 21:15 Clear 46 8 28 -2 50 50 E 9 15 30.21 1023 10 16 0.00 0.00
9:35 pm 21:35 Clear 46 8 28 -2 50 50 ESE 9 15 30.24 1024 10 16 0.00 0.00
9:55 pm 21:55 Clear 43 6 27 -3 53 53 E 7 11 30.27 1025 10 16 0.00 0.00
10:15 pm 22:15 Clear 43 6 28 -2 57 57 SE 8 13 30.27 1025 10 16 0.00 0.00
10:35 pm 22:35 Clear 45 7 27 -3 49 49 ESE 10 17 30.24 1024 10 16 0.00 0.00
10:55 pm 22:55 Clear 41 5 25 -4 53 53 ESE 8 13 30.27 1025 10 16 0.00 0.00
11:15 pm 23:15 Clear 41 5 27 -3 57 57 SE 9 15 30.27 1025 10 16 0.00 0.00
11:35 pm 23:35 Clear 39 4 25 -4 56 56 ESE 8 13 30.27 1025 10 16 0.00 0.00
11:55 pm 23:55 Clear 39 4 25 -4 56 56 SE 8 13 30.27 1025 10 16 0.00 0.00

Powered by AerisWeather